Silver City, NM

8:31 PM MDT on March 24, 2017 (GMT -0600)
Grant County

Weather History for KSVC - April, 2013

Change the Weather History Date:

Tuesday, April 2, 2013

  Actual Average (KDMN) Record (KDMN)
Temperature  
Mean Temperature 54 °F -  
Max Temperature 68 °F 72 °F 90 °F (2011)
Min Temperature 41 °F 36 °F 22 °F (1970)
Degree Days  
Heating Degree Days 10    
Growing Degree Days 4 (Base 50)    
Moisture  
Dew Point 12 °F    
Average Humidity 19    
Maximum Humidity 39    
Minimum Humidity 8    
Precipitation  
Precipitation 0.00 in - - ()
Sea Level Pressure  
Sea Level Pressure 30.00 in    
Wind  
Wind Speed 13 mph (NW)    
Max Wind Speed 31 mph    
Max Gust Speed 38 mph    
Visibility 10 miles    
Events      
Averages and records for this station are not official NWS values.
T = Trace of Precipitation, MM = Missing Value Source: NWS Daily Summary

Daily Weather History Graph

Daily Weather History Graph

Search for Another Location

Airport or City:

Trip Planner

Search our weather history database for the weather conditions in past years. The results will help you decide how hot, cold, wet, or windy it might be!

Date:

Astronomy

Apr. 02, 2013 Rise Set
Actual Time 6:59 AM MDT 7:33 PM MDT
Civil Twilight 6:34 AM MDT 7:58 PM MDT
Nautical Twilight 6:05 AM MDT 8:27 PM MDT
Astronomical Twilight 5:35 AM MDT 8:57 PM MDT
Moon 1:27 AM MDT (4/2) 12:06 PM MDT (4/2)
Length of Visible Light 13h 24m
Length of Day
12h 34m
Waning Gibbous, 55% of the Moon is Illuminated
Apr 2
Waning Gibbous
Apr 2
Last Quarter
Apr 10
New
Apr 18
First Quarter
Apr 25
Full

Hourly Weather History & Observations

Time (MDT) Temp. Windchill Dew Point Humidity Pressure Visibility Wind Dir Wind Speed Gust Speed Precip Events Conditions
12:15 AM 53.6 °F - 17.6 °F 24% 30.02 in 10.0 mi NNW 11.5 mph - N/A   Clear
12:35 AM 53.6 °F - 15.8 °F 22% 30.02 in 10.0 mi NW 11.5 mph - N/A   Clear
12:55 AM 53.6 °F - 15.8 °F 22% 30.02 in 10.0 mi NW 11.5 mph - N/A   Clear
1:15 AM 50.0 °F - 15.8 °F 26% 30.02 in 10.0 mi NW 9.2 mph - N/A   Clear
1:35 AM 48.2 °F - 14.0 °F 25% 30.02 in 10.0 mi NNW 9.2 mph - N/A   Clear
1:55 AM 48.2 °F - 14.0 °F 25% 30.02 in 10.0 mi NNW 11.5 mph - N/A   Clear
2:15 AM 48.2 °F - 15.8 °F 27% 30.02 in 10.0 mi NNW 12.7 mph - N/A   Clear
2:35 AM 50.0 °F - 15.8 °F 26% 30.02 in 10.0 mi NNW 12.7 mph - N/A   Clear
2:55 AM 51.8 °F - 15.8 °F 24% 30.01 in 10.0 mi NNW 15.0 mph - N/A   Clear
3:15 AM 51.8 °F - 17.6 °F 26% 30.00 in 10.0 mi NW 13.8 mph - N/A   Clear
3:35 AM 50.0 °F - 17.6 °F 28% 30.00 in 10.0 mi NNW 13.8 mph - N/A   Clear
3:55 AM 48.2 °F - 17.6 °F 30% 29.99 in 10.0 mi NNW 12.7 mph - N/A   Clear
4:15 AM 48.2 °F - 17.6 °F 30% 29.99 in 10.0 mi NNW 11.5 mph - N/A   Clear
4:35 AM 48.2 °F - 17.6 °F 30% 29.99 in 10.0 mi NNW 12.7 mph - N/A   Clear
4:55 AM 46.4 °F 41.9 °F 17.6 °F 32% 29.99 in 10.0 mi NNW 9.2 mph - N/A   Clear
5:15 AM 46.4 °F 41.9 °F 17.6 °F 32% 30.00 in 10.0 mi NNW 9.2 mph - N/A   Clear
5:35 AM 46.4 °F 40.7 °F 17.6 °F 32% 30.00 in 10.0 mi North 12.7 mph - N/A   Clear
5:55 AM 46.4 °F 41.5 °F 17.6 °F 32% 30.01 in 10.0 mi North 10.4 mph - N/A   Clear
6:15 AM 44.6 °F 40.2 °F 17.6 °F 34% 30.02 in 10.0 mi North 8.1 mph - N/A   Clear
6:35 AM 44.6 °F 39.7 °F 17.6 °F 34% 30.02 in 10.0 mi North 9.2 mph - N/A   Clear
6:55 AM 44.6 °F 38.8 °F 17.6 °F 34% 30.02 in 10.0 mi North 11.5 mph - N/A   Clear
7:15 AM 42.8 °F 37.0 °F 17.6 °F 36% 30.02 in 10.0 mi North 10.4 mph - N/A   Clear
7:35 AM 41.0 °F 37.1 °F 17.6 °F 39% 30.02 in 10.0 mi NNW 5.8 mph - N/A   Clear
7:55 AM 46.4 °F 43.5 °F 19.4 °F 34% 30.03 in 10.0 mi NNW 5.8 mph - N/A   Clear
8:35 AM 55.4 °F - 19.4 °F 25% 30.03 in 10.0 mi NW 5.8 mph - N/A   Clear
8:55 AM 57.2 °F - 19.4 °F 23% 30.03 in 10.0 mi NNW 6.9 mph - N/A   Clear
9:15 AM 57.2 °F - 17.6 °F 21% 30.02 in 10.0 mi NW 9.2 mph - N/A   Clear
9:35 AM 59.0 °F - 17.6 °F 20% 30.02 in 10.0 mi NW 11.5 mph - N/A   Clear
9:55 AM 60.8 °F - 19.4 °F 20% 30.03 in 10.0 mi WNW 10.4 mph - N/A   Clear
10:15 AM 60.8 °F - 17.6 °F 19% 30.03 in 10.0 mi WNW 12.7 mph 24.2 mph N/A   Clear
10:35 AM 62.6 °F - 19.4 °F 19% 30.03 in 10.0 mi WNW 17.3 mph 24.2 mph N/A   Clear
10:55 AM 62.6 °F - 19.4 °F 19% 30.03 in 10.0 mi West 11.5 mph 20.7 mph N/A   Clear
11:15 AM 64.4 °F - 17.6 °F 16% 30.02 in 10.0 mi West 20.7 mph 28.8 mph N/A   Clear
11:35 AM 64.4 °F - 17.6 °F 16% 30.03 in 10.0 mi West 13.8 mph 26.5 mph N/A   Clear
11:55 AM 64.4 °F - 14.0 °F 14% 30.02 in 10.0 mi WNW 13.8 mph 26.5 mph N/A   Clear
12:15 PM 64.4 °F - 14.0 °F 14% 30.02 in 10.0 mi WNW 16.1 mph 25.3 mph N/A   Clear
12:35 PM 66.2 °F - 14.0 °F 13% 30.01 in 10.0 mi West 17.3 mph 24.2 mph N/A   Clear
12:55 PM 66.2 °F - 14.0 °F 13% 30.01 in 10.0 mi West 21.9 mph 28.8 mph N/A   Clear
1:15 PM 64.4 °F - 8.6 °F 11% 30.00 in 10.0 mi West 20.7 mph 29.9 mph N/A   Clear
1:35 PM 66.2 °F - 8.6 °F 11% 29.99 in 10.0 mi West 13.8 mph 27.6 mph N/A   Clear
1:55 PM 66.2 °F - 8.6 °F 11% 29.98 in 10.0 mi West 19.6 mph 28.8 mph N/A   Clear
2:15 PM 66.2 °F - 10.4 °F 11% 29.97 in 10.0 mi WNW 21.9 mph 28.8 mph N/A   Clear
2:35 PM 68.0 °F - 5.0 °F 8% 29.96 in 10.0 mi West 21.9 mph 33.4 mph N/A   Clear
2:55 PM 66.2 °F - 5.0 °F 9% 29.96 in 10.0 mi West 19.6 mph 36.8 mph N/A   Clear
3:15 PM 68.0 °F - 5.0 °F 8% 29.96 in 10.0 mi West 21.9 mph 33.4 mph N/A   Clear
3:35 PM 66.2 °F - 6.8 °F 10% 29.94 in 10.0 mi West 21.9 mph 31.1 mph N/A   Clear
3:55 PM 66.2 °F - 6.8 °F 10% 29.94 in 10.0 mi West 24.2 mph 34.5 mph N/A   Clear
4:15 PM 68.0 °F - 6.8 °F 9% 29.94 in 10.0 mi West 25.3 mph 38.0 mph N/A   Clear
4:35 PM 66.2 °F - 6.8 °F 10% 29.93 in 10.0 mi West 21.9 mph 32.2 mph N/A   Clear
4:55 PM 66.2 °F - 6.8 °F 10% 29.93 in 10.0 mi WNW 31.1 mph 38.0 mph N/A   Clear
5:15 PM 66.2 °F - 6.8 °F 10% 29.93 in 10.0 mi West 25.3 mph 35.7 mph N/A   Clear
5:35 PM 66.2 °F - 6.8 °F 10% 29.94 in 10.0 mi WNW 29.9 mph 38.0 mph N/A   Clear
5:55 PM 66.2 °F - 5.0 °F 9% 29.94 in 10.0 mi WNW 25.3 mph 34.5 mph N/A   Clear
6:15 PM 66.2 °F - 6.8 °F 10% 29.94 in 10.0 mi West 19.6 mph 27.6 mph N/A   Clear
6:35 PM 64.4 °F - 5.0 °F 10% 29.94 in 10.0 mi WNW 23.0 mph 27.6 mph N/A   Clear
6:55 PM 64.4 °F - 5.0 °F 10% 29.95 in 10.0 mi WNW 20.7 mph 27.6 mph N/A   Clear
7:15 PM 62.6 °F - 3.2 °F 9% 29.96 in 10.0 mi WNW 20.7 mph 25.3 mph N/A   Clear
7:35 PM 60.8 °F - 1.4 °F 9% 29.97 in 10.0 mi WNW 16.1 mph - N/A   Clear
7:55 PM 59.0 °F - 5.0 °F 12% 29.97 in 10.0 mi WNW 13.8 mph - N/A   Clear
8:15 PM 57.2 °F - 5.0 °F 12% 29.98 in 10.0 mi NW 10.4 mph - N/A   Clear
8:35 PM 55.4 °F - 5.0 °F 13% 29.99 in 10.0 mi NW 8.1 mph - N/A   Clear
8:55 PM 53.6 °F - 5.0 °F 14% 30.00 in 10.0 mi NW 8.1 mph - N/A   Clear
9:15 PM 53.6 °F - 5.0 °F 14% 30.01 in 10.0 mi WNW 8.1 mph - N/A   Clear
9:35 PM 50.0 °F - 5.0 °F 16% 30.02 in 10.0 mi NW 8.1 mph - N/A   Clear
9:55 PM 48.2 °F - 5.0 °F 17% 30.02 in 10.0 mi WNW 10.4 mph - N/A   Clear
10:15 PM 53.6 °F - 10.4 °F 18% 30.02 in 10.0 mi WNW 16.1 mph 23.0 mph N/A   Clear
10:35 PM 53.6 °F - 12.2 °F 19% 30.02 in 10.0 mi WNW 17.3 mph - N/A   Clear
10:55 PM 53.6 °F - 12.2 °F 19% 30.03 in 10.0 mi WNW 16.1 mph 20.7 mph N/A   Clear
11:15 PM 53.6 °F - 14.0 °F 21% 30.04 in 10.0 mi WNW 10.4 mph - N/A   Clear
11:35 PM 50.0 °F - 12.2 °F 22% 30.04 in 10.0 mi WNW 9.2 mph - N/A   Clear
11:55 PM 44.6 °F 40.2 °F 10.4 °F 25% 30.04 in 10.0 mi NW 8.1 mph - N/A   Clear